Station FOXR1 - 8454000 - Providence, RI Image indicating link to RSS feed of recent meteorological observations for station FOXR1


Conditions at FOXR1 as of
(12:00 pm EDT)
1600 GMT on 06/23/2024:
     

Click on the graph icon in the table below to see a time series plot of the last five days of that observation.

5-day plot - Wind Direction Wind Direction (WDIR): S ( 180 deg true )
5-day plot - Wind Speed Wind Speed (WSPD): 11.1 kts
5-day plot - Wind Gust Wind Gust (GST): 15.9 kts
5-day plot - Atmospheric Pressure Atmospheric Pressure (PRES):29.74 in
5-day plot - Air Temperature Air Temperature (ATMP): 80.1 °F
5-day plot - Water Temperature Water Temperature (WTMP): 66.0 °F
5-day plot - Wind Speed at 10 Meters Wind Speed at 10 meters (WSPD10M): 9.7 kts
5-day plot - Wind Speed at 20 Meters Wind Speed at 20 meters (WSPD20M): 11.7 kts
5-day plot -  Wind Speed, Wind Gust and Atmospheric Pressure Combined plot of Wind Speed, Gust, and Air Pressure
NOS Water Level Observation Network Water Level
Previous observations
TIME
(EDT)
5-day plot - Wind Direction
WDIR
 
5-day plot - Wind Speed
WSPD
kts
5-day plot - Wind Gust
GST
kts
5-day plot - Wave Height
WVHT
ft
5-day plot - Dominant Wave Period
DPD
sec
5-day plot - Average Wave Period
APD
sec
5-day plot - Mean Wave Direction
MWD
 
5-day plot - Atmospheric Pressure
PRES
in
5-day plot - Pressure Tendency
PTDY
in
5-day plot - Air Temperature
ATMP
°F
5-day plot - Water Temperature
WTMP
°F
5-day plot - Dew Point
DEWP
°F
5-day plot - Salinity
SAL
psu
5-day plot - Visibility
VIS
nmi
5-day plot - Tide (above MLLW)
TIDE
ft
2024-06-23 11:54 am S 11.1 15.0----29.74- 79.5 65.8----
2024-06-23 11:48 am S 13.0 15.9----29.74- 79.2 65.8----
2024-06-23 11:42 amSSW 11.1 15.0----29.75- 79.2 65.8----
2024-06-23 11:36 am S 11.1 14.0----29.75- 79.0 65.8----
2024-06-23 11:30 am S 11.1 17.1----29.75- 78.6 65.7----
2024-06-23 11:24 am S 9.9 18.1----29.75- 78.6 65.7----
2024-06-23 11:18 am S 12.0 15.0----29.75-- 65.7----
2024-06-23 11:12 amSSW 11.1 15.9----29.75-- 65.7----
2024-06-23 11:06 am S 11.1 15.0----29.75-- 65.5----
2024-06-23 11:00 am S 8.0 14.0----29.76-0.08------
2024-06-23 10:54 am S 8.0 15.9----29.76-------
2024-06-23 10:48 am S 11.1 14.0----29.77- 77.2 65.3----
2024-06-23 10:42 amSSW 8.9 13.0----29.77- 76.8 65.3----
2024-06-23 10:36 am S 9.9 12.0----29.77- 76.3 65.3----
2024-06-23 10:30 am S 11.1 15.9----29.78- 75.9 65.1----
2024-06-23 10:24 am S 7.0 11.1----29.78- 75.9 65.1----
2024-06-23 10:18 amSSW 8.9 15.0----29.78-- 64.9----
2024-06-23 10:12 am S 8.9 14.0----29.78-- 64.9----
2024-06-23 10:06 am S 8.0 14.0----29.79-- 64.8----
2024-06-23 10:00 am S 8.9 12.0------ 74.8 64.8----
2024-06-23 09:54 am S 7.0 11.1------ 74.5 64.8----
2024-06-23 09:48 am S 7.0 12.0----29.80- 74.1 64.6----
2024-06-23 09:42 amSSE 5.1 9.9----29.80- 73.6 64.6----
2024-06-23 09:36 am S 7.0 9.9----29.80- 73.4 64.6----
2024-06-23 09:30 am S 5.1 11.1----29.80-- 64.6----
2024-06-23 09:24 amSSE 6.0 9.9----29.80-- 64.6----
2024-06-23 09:18 amSSE 6.0 11.1----29.81- 72.5 64.6----
2024-06-23 09:12 amSSE 6.0 9.9----29.81- 72.5 64.6----
2024-06-23 09:06 am S 7.0 14.0----29.81- 72.1 64.8----
2024-06-23 09:00 am S 8.0 14.0------- 64.8----
2024-06-23 08:54 amSSE 8.9 15.0------- 64.8----
2024-06-23 08:48 amSSE 9.9 14.0----29.82- 71.6 64.8----
2024-06-23 08:42 amSSE 9.9 14.0----29.82- 71.6 64.9----
2024-06-23 08:36 amSSE 8.0 12.0----29.82- 71.4 64.9----
2024-06-23 08:30 amSSE 7.0 9.9----29.83- 71.1 64.9----
2024-06-23 08:24 am S 7.0 11.1----29.83- 70.9 64.9----
2024-06-23 08:18 amSSE 8.9 12.0----29.83- 70.5 64.9----
2024-06-23 08:12 amSSE 8.0 9.9----29.83- 70.3 64.9----
2024-06-23 08:06 amSSE 8.0 13.0----29.83- 70.2 65.1----
2024-06-23 08:00 amSSE 8.0 11.1----29.84-0.06- 65.1----
2024-06-23 07:54 amSSE 8.0 13.0----29.84-- 65.1----
2024-06-23 07:48 amSSE 8.0 12.0----29.84- 69.8 65.1----
2024-06-23 07:42 amSSE 9.9 12.0----29.84- 69.6 65.1----
2024-06-23 07:36 amSSE 6.0 11.1----29.85- 69.4 65.1----
2024-06-23 07:30 amSSE 7.0 9.9----29.85- 69.3 65.1----
2024-06-23 07:24 amSSE 6.0 8.9----29.85- 69.1 65.1----
2024-06-23 07:18 amSSE 7.0 8.9----29.85-- 65.1----
2024-06-23 07:12 amSSE 8.0 8.9----29.85-- 64.9----
2024-06-23 07:06 amSSE 6.0 7.0----29.85-- 64.9----
2024-06-23 07:00 am S 5.1 8.0------ 68.2 64.9----
2024-06-23 06:54 amSSE 5.1 7.0------ 68.2 65.1----
2024-06-23 06:48 amSSE 6.0 7.0----29.85- 67.8 65.1----
2024-06-23 06:42 amSSE 6.0 8.0----29.85- 67.8 65.3----
2024-06-23 06:36 amSSE 5.1 8.9----29.86- 67.6 65.3----
2024-06-23 06:30 amSSE 8.0 14.0----29.86- 67.5 65.5----
2024-06-23 06:24 amSSE 12.0 15.0----29.85- 67.5 65.7----
2024-06-23 06:18 amSSE 8.9 11.1----29.86- 67.3 66.0----
2024-06-23 06:12 am SE 8.9 11.1----29.87- 67.3 66.2----
2024-06-23 06:06 amESE 8.0 9.9----29.87- 67.3 66.4----
2024-06-23 06:00 amESE 1.9 6.0----29.89-0.09- 66.6----
2024-06-23 05:54 amSSE 6.0 8.0----29.88-- 66.7----
2024-06-23 05:48 amSSE 7.0 8.9----29.90- 66.2 66.7----
2024-06-23 05:42 am S 6.0 8.9----29.91- 66.2 66.7----
2024-06-23 05:36 am S 4.1 5.1----29.91- 66.2 66.9----
2024-06-23 05:30 am S 1.9 2.9----29.89- 65.8 66.9----
2024-06-23 05:24 amSSE 1.9 5.1----29.89- 65.8 66.9----
2024-06-23 05:18 am SW 4.1 5.1----29.91- 65.8 66.9----
2024-06-23 05:12 am S 2.9 4.1----29.90- 65.7 66.9----
2024-06-23 05:06 am S 4.1 5.1----29.90- 65.7 66.9----
2024-06-23 05:00 am S 1.9 5.1----29.90- 65.5 66.9----
2024-06-23 04:54 amSSW 2.9 5.1----29.90- 65.3 66.9----
2024-06-23 04:48 am S 2.9 5.1----29.90- 65.3 66.9----
2024-06-23 04:42 amSSE 4.1 6.0----29.90- 65.1 66.9----
2024-06-23 04:36 amSSE 4.1 6.0----29.90- 65.1 66.9----
2024-06-23 04:30 amSSE 4.1 7.0----29.90- 64.9 67.1----
2024-06-23 04:24 amSSE 4.1 5.1----29.90- 64.8 67.1----
2024-06-23 04:18 amSSE 2.9 5.1----29.90- 64.8 67.1----
2024-06-23 04:12 amSSE 5.1 7.0----29.90- 64.8 67.1----
2024-06-23 04:06 amSSE 6.0 7.0----29.91- 64.6 67.1----
2024-06-23 04:00 amSSE 5.1 8.0----29.92-0.07 64.6 67.1----
2024-06-23 03:54 am SE 6.0 8.9----29.91- 64.8 67.1----
2024-06-23 03:48 amESE 8.0 11.1----29.90- 64.8 67.3----
2024-06-23 03:42 amESE 8.9 9.9----29.90- 65.1 67.3----
2024-06-23 03:36 amESE 8.9 9.9----29.92- 64.9 67.3----
2024-06-23 03:30 am E 5.1 6.0----29.94- 64.6 67.3----
2024-06-23 03:24 am E 1.9 4.1----29.96- 64.6 67.3----
2024-06-23 03:18 amNNW 2.9 6.0----29.97- 64.6 67.3----
2024-06-23 03:12 amWNW 8.0 13.0----29.99- 64.9 67.3----
2024-06-23 03:06 amWNW 11.1 14.0----30.00- 64.9 67.3----
2024-06-23 03:00 am NW 8.9 12.0----29.98-0.02 64.9 67.3----
2024-06-23 02:54 amNNW 7.0 8.9----29.97- 64.8 67.5----
2024-06-23 02:48 am N 6.0 7.0----29.96- 64.8 67.3----
2024-06-23 02:42 am N 5.1 7.0----29.95- 64.9 67.3----
2024-06-23 02:36 am N 5.1 8.0----29.95- 64.9 67.3----
2024-06-23 02:30 amNNE 6.0 8.0----29.95- 64.8 67.3----
2024-06-23 02:24 amNNE 5.1 8.0----29.95- 64.9 67.1----
2024-06-23 02:18 am N 5.1 7.0----29.96- 64.9 67.1----
2024-06-23 02:12 amNNE 5.1 6.0----29.96- 64.8 67.1----
2024-06-23 02:06 am N 4.1 6.0----29.96- 64.8 67.1----
2024-06-23 02:00 am--------- 64.9 66.9----
2024-06-23 01:54 am--------- 64.9 66.9----
2024-06-23 01:48 am N 4.1 6.0----29.97- 64.9 66.7----
2024-06-23 01:42 amNNE 4.1 6.0----29.97- 64.8 66.7----
2024-06-23 01:36 amNNE 5.1 6.0----29.97- 64.6 66.7----
2024-06-23 01:30 am-------29.98-- 66.6----
2024-06-23 01:24 am-------29.98-- 66.6----
2024-06-23 01:18 am N 2.9 6.0----29.98- 64.9 66.4----
2024-06-23 01:12 amNNE 4.1 6.0----29.98- 64.8 66.2----
2024-06-23 01:06 am N 4.1 6.0----29.98- 64.8 66.0----
2024-06-23 01:00 am N 5.1 6.0----29.98-0.02 64.9 66.0----
2024-06-23 12:54 amNNE 5.1 6.0----29.99- 64.6 65.8----
2024-06-23 12:48 amNNE 4.1 5.1----29.99- 64.8 65.7----
2024-06-23 12:42 amNNE 4.1 5.1----29.99- 64.9 65.5----
2024-06-23 12:36 am N 4.1 5.1----29.99- 64.9 65.5----
2024-06-23 12:30 amNNE 4.1 6.0----29.99- 65.1 65.5----
2024-06-23 12:24 am N 5.1 7.0----29.99- 64.9 65.3----
2024-06-23 12:18 am N 5.1 7.0----29.99-- 65.3----
2024-06-23 12:12 am N 6.0 7.0----29.99-- 65.1----
2024-06-23 12:06 amNNE 5.1 6.0----29.99-- 65.1----
2024-06-23 12:00 am N 4.1 5.1----30.00+0.01 65.3 65.1----
2024-06-22 11:54 pm N 2.9 8.0----30.00- 65.1 65.1----
2024-06-22 11:48 pmNNE 5.1 7.0----30.00- 64.9 64.9----
2024-06-22 11:42 pmNNE 4.1 8.0----29.99- 65.1 64.9----
2024-06-22 11:36 pmNNE 6.0 8.9----29.99- 64.9 64.9----
2024-06-22 11:30 pm N 6.0 8.0----30.00- 65.3 64.8----
2024-06-22 11:24 pm N 5.1 7.0----30.00- 65.3 64.8----
2024-06-22 11:18 pm N 5.1 7.0----30.00- 65.3 64.8----
2024-06-22 11:12 pmNNE 6.0 6.0----30.00- 65.3 64.8----
2024-06-22 11:06 pm N 5.1 7.0----30.01- 65.5 64.8----
2024-06-22 11:00 pm-------30.00+0.01- 64.6----
2024-06-22 10:54 pm-------30.00-- 64.6----
2024-06-22 10:48 pm-------30.00-- 64.6----
2024-06-22 10:42 pm-------30.01-- 64.6----
2024-06-22 10:36 pm-------30.01-- 64.8----
2024-06-22 10:30 pm N 5.1 8.0----30.00- 65.5 64.8----
2024-06-22 10:24 pm N 5.1 8.9----30.01- 65.7 64.9----
2024-06-22 10:18 pmNNE 7.0 8.9----30.01- 65.7 65.1----
2024-06-22 10:12 pm N 6.0 8.0----30.01- 65.7 65.3----
2024-06-22 10:06 pm N 4.1 6.0----30.01- 65.8 65.3----
2024-06-22 10:00 pmNNE 5.1 7.0----30.01+0.01- 65.3----
2024-06-22 09:54 pmNNE 6.0 8.0----30.01-- 65.3----
2024-06-22 09:48 pm N 6.0 8.0----30.00- 65.8 65.3----
2024-06-22 09:42 pmNNE 7.0 8.9----30.00- 65.8 65.3----
2024-06-22 09:36 pmNNE 7.0 9.9----30.00- 66.0 65.3----
2024-06-22 09:30 pmNNE 7.0 8.9----30.00-------
2024-06-22 09:24 pmNNE 7.0 9.9----30.00-------
2024-06-22 09:18 pm N 5.1 8.9----30.00- 66.2 65.5----
2024-06-22 09:12 pm N 8.0 12.0----30.00- 66.4 65.5----
2024-06-22 09:06 pm N 8.0 11.1----29.99- 66.2 65.7----
2024-06-22 09:00 pmNNE 6.0 8.9----29.99+0.01 66.6 65.7----
2024-06-22 08:54 pm N 6.0 9.9----29.99- 66.9 65.7----
2024-06-22 08:48 pm N 5.1 8.0----30.00- 66.7 65.7----
2024-06-22 08:42 pmNNE 5.1 8.9----30.00- 66.9 65.7----
2024-06-22 08:36 pmNNE 5.1 8.9----30.00- 67.3 65.7----
2024-06-22 08:30 pm N 7.0 8.9----30.00- 67.5 65.7----
2024-06-22 08:24 pm N 7.0 8.9----29.99- 67.8 65.8----
2024-06-22 08:18 pmNNE 7.0 8.9----29.99- 67.5 65.8----
2024-06-22 08:12 pmNNE 6.0 7.0----29.99- 67.6 65.8----
2024-06-22 08:06 pmNNE 6.0 7.0----29.99- 67.8 65.8----
2024-06-22 08:00 pmNNE 6.0 7.0----29.99-0.05 67.8 65.8----
2024-06-22 07:54 pmNNE 5.1 6.0----29.99- 67.8 66.0----
2024-06-22 07:48 pmNNE 5.1 7.0------- 66.0----
2024-06-22 07:42 pmNNE 6.0 7.0------- 66.0----
2024-06-22 07:36 pmNNE 6.0 7.0------- 66.0----
2024-06-22 07:30 pmNNE 7.0 8.0----29.99- 68.0 66.2----
2024-06-22 07:24 pmNNE 4.1 5.1----29.99- 68.0 66.2----
2024-06-22 07:18 pmNNE 4.1 5.1----30.00- 67.8 66.4----
2024-06-22 07:00 pmNNE 5.1 6.0----29.99+0.00- 66.6----
2024-06-22 06:54 pm NE 5.1 6.0----29.99-- 66.6----
2024-06-22 06:48 pmNNE 2.9 4.1----29.99- 68.0 66.6----
2024-06-22 06:42 pmNNE 1.0 2.9----29.99- 68.0 66.7----
2024-06-22 06:36 pm- 0.0 2.9----29.99- 67.8 66.7----
2024-06-22 06:30 pm- 0.0 1.9----29.99- 67.6 66.9----
2024-06-22 06:24 pm- 0.0 4.1----29.98- 67.8 66.9----
2024-06-22 06:18 pm S 4.1 6.0----29.98- 67.6 66.9----
2024-06-22 06:12 pm SE 4.1 8.0----29.98- 67.8 66.9----
2024-06-22 06:06 pm SE 8.9 11.1----29.98- 68.2 66.9----
2024-06-22 06:00 pm SE 7.0 8.9----29.98-0.02 68.0 67.1----
2024-06-22 05:54 pm SE 7.0 8.9----29.99- 68.2 67.1----
2024-06-22 05:48 pmESE 8.9 11.1----29.98- 68.4 67.1----
2024-06-22 05:42 pm SE 8.0 8.9----29.99- 68.2 67.1----
2024-06-22 05:36 pmESE 6.0 7.0----30.01- 68.4 67.3----
2024-06-22 05:30 pmESE 1.0 4.1----30.02-- 67.3----
2024-06-22 05:24 pm E 1.9 5.1----30.02-- 67.3----
2024-06-22 05:18 pmNNE 2.9 6.0----30.03- 68.7 67.3----
2024-06-22 05:12 pmNNE 5.1 12.0----30.03- 69.3 67.3----
2024-06-22 05:06 pm N 8.9 13.0----30.04- 69.6 67.3----
2024-06-22 05:00 pm N 8.9 15.0----30.03+0.03 70.0 67.3----
2024-06-22 04:54 pm N 7.0 12.0----30.03- 70.3 67.3----
2024-06-22 04:48 pm N 8.9 13.0----30.02-- 67.3----
2024-06-22 04:42 pmNNE 7.0 11.1----30.01-- 67.3----
2024-06-22 04:36 pmNNE 6.0 9.9----30.00-- 67.3----
2024-06-22 04:30 pm--------- 70.9 67.3----
2024-06-22 04:24 pm--------- 71.2 67.5----
2024-06-22 04:18 pmNNE 6.0 11.1----30.00-- 67.5----
2024-06-22 04:12 pmNNE 7.0 8.9----30.00-- 67.5----
2024-06-22 04:06 pmNNE 5.1 8.0----30.00-- 67.5----
2024-06-22 04:00 pm NE 7.0 9.9----29.99-0.03 71.4 67.6----
2024-06-22 03:54 pm NE 5.1 8.9----29.99- 71.6 67.8----
2024-06-22 03:48 pmNNE 6.0 9.9----29.99- 72.0 68.0----
2024-06-22 03:42 pmNNE 8.0 9.9----29.99- 72.1 68.4----
2024-06-22 03:36 pmNNE 7.0 11.1----30.00- 72.7 68.7----
2024-06-22 03:30 pmNNE 5.1 8.9----30.00- 73.2 68.7----
2024-06-22 03:24 pmNNE 6.0 9.9----30.00- 73.6 68.7----
2024-06-22 03:18 pmNNE 6.0 8.9----29.99- 73.8 68.9----
2024-06-22 03:12 pmNNE 6.0 8.9----30.00- 74.1 68.9----
2024-06-22 03:06 pmNNE 6.0 7.0----30.00- 74.1 68.9----
2024-06-22 03:00 pmENE 5.1 6.0----30.00-0.04 74.5 68.9----
2024-06-22 02:54 pm NE 2.9 6.0----30.00- 74.5 68.9----
2024-06-22 02:48 pm NE 5.1 7.0----30.01- 74.7 68.9----
2024-06-22 02:42 pm NE 5.1 6.0----30.01- 74.7 68.9----
2024-06-22 02:36 pm NE 5.1 7.0----30.01- 75.0 69.1----
2024-06-22 02:30 pm N 2.9 5.1----30.01- 75.2 69.1----
2024-06-22 02:24 pmNNE 2.9 5.1----30.01- 75.0 69.1----
2024-06-22 02:18 pmNNE 4.1 6.0----30.01- 74.7-----
2024-06-22 02:12 pmNNE 1.9 2.9----30.01- 74.3-----
2024-06-22 02:06 pm E 2.9 5.1----30.01- 73.8-----
2024-06-22 02:00 pm E 4.1 6.0----30.01-0.04 73.6 68.9----
2024-06-22 01:54 pmENE 2.9 5.1----30.01- 73.9 68.9----
2024-06-22 01:48 pmENE 4.1 6.0----30.01- 73.6 68.9----
2024-06-22 01:42 pmENE 2.9 6.0----30.01- 73.6 68.9----
2024-06-22 01:36 pmNNE 5.1 8.0----30.02- 73.9 68.9----
2024-06-22 01:30 pmNNE 6.0 8.0----30.02- 74.1 68.9----
2024-06-22 01:24 pmNNE 4.1 8.0----30.02- 74.3 68.9----
2024-06-22 01:18 pmNNE 6.0 8.0----30.02- 74.5 68.7----
2024-06-22 01:12 pm NE 4.1 5.1----30.02- 74.1 68.7----
2024-06-22 01:06 pm NE 2.9 5.1----30.02- 74.1 68.7----
2024-06-22 01:00 pm NE 4.1 5.1----30.02-0.03 73.9 68.7----
2024-06-22 12:54 pmNNE 2.9 6.0----30.03- 74.1 68.7----
2024-06-22 12:48 pmENE 2.9 6.0----30.03- 73.6 68.5----
2024-06-22 12:42 pmENE 4.1 6.0----30.03- 73.4 68.5----
2024-06-22 12:36 pmENE 4.1 5.1----30.03- 73.4 68.5----
2024-06-22 12:30 pmNNE 1.9 2.9----30.03- 73.4 68.5----
2024-06-22 12:24 pm E 1.9 4.1----30.03- 72.9 68.5----
2024-06-22 12:18 pmENE 1.9 5.1----30.03- 72.9 68.4----
2024-06-22 12:12 pm E 2.9 4.1----30.03- 72.9 68.2----
2024-06-22 12:06 pm NE 2.9 4.1----30.03- 73.0 68.0----
2024-06-22 12:00 pmNNE 2.9 5.1----30.03-0.02 73.2 67.8----
2024-06-22 11:54 amNNE 2.9 5.1----30.03- 73.2 67.8----